OneWeb SL0148

operational
NORAD ID: 48059 Int'l Des: 2021-025 Owner: ONEWEBN Country: UK Constellation: oneweb
LEOCIRCULARPOLARONEWEB_TYPE

About OneWeb SL0148

Description loading...

Live Position

Loading 3D Globe...

Upcoming Passes

Altitude History

Altitude vs Time

uPlot chart will show altitude changes over time

Two-Line Element Set

1 48059U 21025T 25304.74111456 -.00000304 00000-0 -86861-3 0 9990
2 48059 87.9030 5.6406 0001663 81.4178 278.7140 13.13470101223626
Epoch: Oct 31, 2025 • Age: 16 hours

Current Status

Altitude 1228.5 km
Velocity 7.24 km/s
Sub-Earth Point -45.67°S, 3.36°E
Launch Date Mar 25, 2021
Age 4.6 years
Type internet

Technical Details

Classification Payload
Mass 148.00 kg
Dry Mass 140.00 kg
Total Mass 148.00 kg
Length 1.30 m
Diameter 1.00 m
Span 5.00 m
Shape Trapezoid+2 pan
Manufacturer ONEWUS
Bus Type ARROW
Phase Status In Orbit
Owner/State ONEWEBN/UK

Large Constellations

Loading constellations...